Tracking 31027 objects as of 19-Jul-2025
HD Live streaming from Space Station
objects crossing your sky now

KINEIS-3C

Track KINEIS-3C now!
10-day predictions


NORAD ID: 61220
Int'l Code: 2024-171A
Perigee: 658.9 km
Apogee: 663.1 km
Inclination: 98.0 °
Period: 97.8 minutes
Semi major axis: 7031 km
RCS: Unknown
Launch date: September 20, 2024
Source: France (FR)
Launch site: Rocket Lab Launch Complex (RLLC)
Your satellite tracking list
GALASSIA
Track 1 satellite(s)




NASA's NSSDC Master Catalog

Two Line Element Set (TLE):
1 61220U 24172A   25199.51933630  .00001660  00000-0  27077-3 0  9992
2 61220  98.0337 288.3964 0002940 111.7620 248.3900 14.72265307 43972
Source of the keplerian elements: AFSPC